Theta_e
349 354 364 365 365 365 365 367 367 366 366 366 367 367 368 367 366 365 365 364 364 363 362 362 363 363 362 364 363 362 361 360 361 362 360 359 360 359 359 358 359 355 359
353 355 365 366 365 367 367 366 367 368 368 368 368 368 366 366 366 365 365 364 362 361 360 363 362 363 363 363 361 358 359 360 360 361 360 360 361 360 359 358 358 356 359
354 356 359 365 365 364 367 366 367 367 367 368 368 368 367 365 364 364 364 363 361 359 359 361 363 363 363 362 362 357 359 360 362 360 359 353 352 358 358 357 355 355 355
355 356 358 364 365 363 365 366 367 365 365 368 368 368 367 367 366 364 360 360 359 359 358 358 359 359 360 363 363 361 359 360 359 357 349 349 351 354 354 354 355 355 355
355 357 358 365 365 364 364 365 366 367 365 367 368 368 365 365 365 365 364 363 362 360 358 359 361 362 363 362 361 360 359 359 356 350 345 343 346 355 355 355 353 354 355
355 356 362 364 363 363 364 364 365 365 365 367 367 366 365 363 362 362 362 363 363 362 363 362 359 358 358 359 359 358 356 354 354 345 340 346 344 355 357 357 359 356 354
352 355 358 365 365 364 364 365 365 364 365 364 365 364 363 362 361 361 361 360 359 359 359 358 358 358 358 358 357 355 356 354 343 342 340 345 341 353 356 358 358 359 357
353 355 357 362 364 365 364 364 364 363 362 363 363 362 361 360 360 359 360 359 358 360 358 357 356 355 355 355 354 353 356 352 346 343 343 344 344 351 355 358 358 356 356
355 354 356 356 359 364 366 364 363 363 363 363 362 361 361 360 359 359 358 358 357 357 357 356 356 355 355 355 354 352 352 356 346 343 343 341 343 349 356 357 357 357 359
354 354 353 354 356 357 358 364 362 361 359 359 360 360 359 357 357 357 359 357 356 355 355 356 356 357 355 355 357 355 354 357 348 344 344 344 349 349 355 356 355 356 357
352 352 352 352 351 354 355 357 362 362 360 359 358 357 357 346 340 345 353 356 355 355 355 355 355 357 358 357 355 354 356 348 349 346 346 349 352 352 356 356 356 358 357
348 350 351 351 351 354 356 353 354 354 352 350 351 349 346 343 338 342 348 352 354 354 355 354 355 356 356 349 343 350 346 343 345 346 348 352 353 355 354 355 356 359 357
347 350 350 351 352 353 353 351 351 350 350 350 349 344 345 342 339 339 339 340 339 349 344 345 344 344 346 346 345 347 344 344 344 344 346 351 352 354 355 357 357 356 357
344 348 351 351 352 351 351 352 351 350 348 345 345 346 346 341 339 335 335 336 337 338 338 338 338 340 341 346 346 345 340 341 341 342 340 347 353 356 357 358 356 356 357
343 345 348 351 350 350 348 351 351 350 347 344 340 342 347 343 340 336 335 334 335 337 337 336 337 339 340 345 347 346 342 343 344 344 343 351 353 357 357 356 357 357 360
345 346 348 349 350 350 348 348 345 346 345 340 340 342 345 344 342 343 339 338 336 336 337 336 336 337 339 343 344 347 346 346 345 348 346 345 353 358 358 359 359 359 359
345 346 348 349 350 348 348 348 344 346 346 343 342 344 345 344 344 345 342 339 341 342 342 340 339 342 342 343 344 344 346 346 347 346 349 348 347 355 360 359 361 364 361
344 344 347 349 347 347 348 348 347 347 346 345 344 344 345 346 346 346 343 341 343 342 342 342 341 341 341 340 339 339 340 343 346 346 346 347 346 347 353 361 362 364 361
343 342 344 346 347 346 347 348 346 345 343 344 341 344 345 346 346 347 347 344 344 343 342 340 341 341 339 338 340 341 342 340 344 347 345 346 346 349 349 356 361 362 362
342 343 344 345 346 346 344 346 346 343 341 341 341 341 344 346 347 347 346 345 347 343 343 341 340 342 341 341 345 345 341 342 343 342 343 346 347 348 349 350 351 355 361
341 342 344 344 344 344 344 343 342 342 343 343 344 344 344 346 346 347 345 345 344 343 343 343 343 340 339 341 337 336 338 340 340 341 342 343 344 347 347 348 348 351 354
339 342 343 344 344 345 347 345 343 344 345 346 348 346 345 344 345 344 345 343 342 343 341 342 342 338 338 339 334 331 327 330 334 339 340 342 342 346 346 346 346 347 350
338 340 343 344 345 346 347 344 344 345 343 341 340 343 345 345 345 345 344 341 341 342 341 340 341 338 335 338 339 332 324 323 326 332 338 340 340 339 343 346 345 345 346
339 342 344 343 345 347 347 346 345 341 339 342 342 343 343 346 345 347 345 344 342 340 341 341 342 341 338 335 337 342 336 332 325 324 330 336 339 340 339 342 346 345 345
342 342 344 343 345 348 347 347 345 342 342 342 343 344 343 344 345 345 345 345 343 341 340 340 341 341 342 339 336 335 335 335 334 328 324 326 331 336 340 340 343 344 344
337 345 350 343 343 344 345 344 343 344 344 341 341 342 344 345 346 345 345 345 344 342 340 340 341 340 343 343 340 337 336 333 330 332 327 328 329 331 333 335 340 343 344
Wind_Speed
3 7 16 18 19 18 18 19 19 20 19 19 19 21 20 19 18 16 15 13 13 13 13 13 14 13 15 15 16 15 15 14 14 15 13 13 11 11 12 12 11 7 11
9 6 16 18 19 19 19 19 19 19 19 19 19 19 19 19 18 17 17 14 14 14 14 14 14 13 14 14 15 15 15 14 13 12 12 10 11 9 9 12 10 7 10
11 10 13 17 19 19 19 19 19 19 19 19 19 19 19 19 18 17 18 16 15 15 14 13 14 13 14 14 13 14 13 12 11 10 8 4 6 8 8 10 10 10 8
12 10 11 17 18 19 19 19 18 20 20 19 18 18 18 18 17 17 18 16 15 15 14 13 13 12 13 12 13 12 12 11 10 9 4 4 4 8 6 7 8 9 8
12 10 12 17 17 19 19 19 18 18 19 18 18 19 18 18 18 17 18 16 16 15 14 11 10 10 11 11 11 10 9 8 6 6 4 4 3 5 7 7 7 7 7
10 10 16 18 19 18 18 18 17 18 18 17 17 17 17 18 16 18 16 15 15 14 13 12 9 7 10 10 9 8 6 3 4 4 4 4 4 1 7 8 9 9 7
9 8 13 17 17 17 17 17 17 17 17 17 17 18 17 18 15 15 17 13 13 13 12 10 7 5 6 6 4 7 7 7 1 1 3 1 2 6 5 6 6 7 8
11 9 11 17 17 16 17 18 17 17 17 16 15 16 16 17 17 14 15 13 11 10 10 7 5 4 3 3 3 2 8 7 4 3 1 0 1 4 8 8 7 6 6
11 8 9 10 15 19 17 18 17 16 16 16 16 15 14 15 15 15 14 13 11 8 7 6 4 2 0 1 2 0 4 10 2 3 2 1 7 8 8 11 8 8 9
9 9 7 6 9 8 10 18 17 17 16 16 16 16 15 14 13 11 13 12 11 8 6 4 4 4 2 3 5 3 6 13 6 5 3 2 10 12 10 11 11 11 10
10 8 7 7 5 5 6 10 15 17 16 17 16 16 12 3 2 7 9 11 11 9 7 4 2 3 4 4 3 2 6 2 3 3 3 8 9 11 14 14 12 12 13
13 10 9 8 8 6 6 5 6 6 4 3 4 4 3 3 2 4 7 9 9 9 7 5 4 5 4 0 1 3 2 4 3 3 2 8 7 10 11 13 13 13 15
13 9 10 9 8 9 8 4 3 2 3 3 4 4 4 3 1 1 1 1 1 7 2 1 1 2 2 3 3 3 2 3 2 2 3 9 10 12 13 18 17 14 16
14 14 13 12 10 9 4 6 5 4 3 3 4 4 3 1 2 2 2 3 3 2 3 2 2 3 5 5 5 4 5 4 3 2 5 13 13 13 15 13 15 16 17
14 13 14 12 11 10 6 6 5 6 5 5 5 5 4 4 4 4 3 3 4 3 4 4 4 3 4 3 4 5 5 6 5 3 3 11 13 17 15 10 13 16 18
13 15 14 14 12 11 9 7 5 4 4 4 4 5 6 4 4 4 4 4 4 4 4 4 4 4 4 3 4 5 8 6 5 5 4 4 11 15 9 13 15 16 16
14 14 15 14 12 13 12 7 6 6 3 3 4 6 6 5 5 5 4 3 4 4 4 3 4 4 3 3 5 4 5 6 5 6 3 3 3 12 13 13 13 13 15
14 16 14 13 12 12 11 7 5 5 5 6 5 4 6 7 6 4 4 4 3 4 3 3 3 3 4 3 3 4 4 5 5 6 4 4 3 5 9 14 13 14 16
16 14 15 14 14 14 9 6 6 5 4 5 4 4 6 7 7 6 4 4 4 3 4 3 4 3 3 2 4 4 3 4 5 5 6 6 6 7 5 9 13 14 18
13 14 15 13 14 10 3 3 2 3 3 3 4 5 5 5 7 6 5 5 4 3 4 3 4 3 4 3 3 4 4 3 3 4 5 6 6 7 5 6 4 6 15
12 13 15 15 11 9 5 4 3 6 4 5 5 6 7 6 6 6 5 4 4 4 5 5 3 4 2 2 1 3 3 4 5 6 5 5 6 7 6 5 4 3 5
17 15 14 13 10 11 8 5 3 3 4 5 6 5 7 7 6 6 7 6 5 3 4 4 3 2 1 3 2 1 3 5 3 5 4 5 6 4 6 7 8 7 6
10 15 14 13 11 10 9 3 2 0 1 2 4 5 7 8 7 7 6 5 5 4 4 5 4 5 3 2 5 3 0 4 3 2 4 4 5 5 5 7 8 8 8
12 9 9 9 9 9 9 8 9 4 4 4 4 5 6 9 8 7 7 7 6 5 5 4 4 4 4 4 0 4 3 2 1 5 2 3 4 6 7 6 7 8 8
4 6 4 3 6 7 8 10 8 5 4 2 2 5 6 6 9 8 8 8 8 5 5 5 5 5 4 3 4 2 2 2 2 3 4 4 2 4 4 6 6 6 7
2 4 6 6 2 6 2 5 9 10 6 4 4 4 4 4 5 8 8 7 6 5 5 5 6 6 6 5 4 4 4 3 2 3 3 3 3 4 3 4 5 6 6
Wind_Direction
167 156 137 133 130 125 118 114 113 113 114 114 113 110 112 113 114 116 116 113 105 106 99 99 99 95 99 97 101 104 105 108 109 105 110 114 103 114 110 108 102 108 112
139 151 141 134 131 126 121 120 119 117 116 114 112 110 113 113 112 115 113 112 112 106 105 105 106 109 105 105 106 111 113 112 109 110 120 120 112 108 117 106 98 97 95
136 142 142 135 132 129 125 126 124 120 119 117 116 115 113 110 111 114 114 117 112 108 105 107 108 110 110 112 112 115 114 114 102 88 91 81 94 102 107 108 113 114 114
138 145 145 138 135 134 129 129 127 124 121 118 117 116 119 119 120 118 111 109 109 110 113 116 118 113 108 109 107 109 116 106 92 90 74 45 103 115 117 119 122 125 126
139 147 150 143 140 139 137 136 133 129 126 123 120 119 119 118 118 115 114 115 116 118 115 116 110 104 103 108 106 105 111 108 111 88 70 85 46 150 136 140 137 134 127
132 144 148 148 147 145 144 140 136 132 130 129 125 122 125 122 122 119 112 112 110 106 106 111 112 109 110 109 122 131 132 115 41 47 27 38 60 256 162 175 169 149 146
131 153 148 153 152 150 147 144 139 141 139 136 136 133 132 128 126 121 116 113 112 112 107 106 105 90 93 109 130 130 129 104 111 74 155 141 35 312 212 194 196 165 164
141 149 156 159 159 158 154 150 150 150 147 144 141 138 138 136 133 129 122 123 121 113 111 117 116 97 71 78 85 132 157 161 193 178 132 177 251 294 227 233 194 164 197
149 153 158 167 167 166 162 160 159 156 154 153 150 147 146 142 142 140 136 135 134 125 123 134 135 123 327 341 293 266 193 200 127 276 238 242 255 246 257 231 217 197 199
152 163 166 171 170 172 169 168 167 168 169 170 170 168 165 164 153 152 148 152 146 142 149 142 177 202 225 292 296 272 186 200 172 215 247 225 251 234 240 244 221 213 217
168 173 174 174 173 171 172 183 181 180 185 183 178 181 186 161 285 173 161 168 158 163 164 178 193 238 243 269 341 303 235 215 220 190 196 234 226 237 241 241 226 217 216
176 184 184 179 177 179 186 200 179 185 176 191 185 180 160 158 190 165 189 181 171 182 178 199 228 251 276 155 281 311 162 216 210 201 219 241 250 260 241 237 236 221 221
176 178 184 185 189 185 194 186 190 178 177 170 191 176 181 166 187 288 182 294 155 214 193 234 316 279 286 210 238 230 202 215 211 234 241 256 252 241 253 251 242 228 221
182 186 184 188 190 197 190 197 185 185 184 167 181 179 147 174 189 216 214 209 212 224 212 210 237 256 265 227 218 199 208 239 215 213 234 247 242 235 247 250 232 227 223
185 192 192 187 195 197 193 200 192 202 192 185 170 196 182 180 183 182 230 227 228 224 216 224 241 256 274 247 229 231 231 232 220 206 205 247 248 250 231 242 246 237 225
189 194 193 193 199 199 203 191 193 204 205 185 186 198 191 177 178 194 192 217 238 224 223 216 225 250 255 246 241 227 248 256 241 212 193 226 250 255 244 238 242 236 228
196 192 196 188 197 203 205 191 186 208 180 208 217 195 190 177 194 187 199 211 237 240 238 228 232 249 253 242 245 234 234 258 255 255 229 229 271 272 241 236 238 233 229
193 196 196 191 192 207 203 198 185 188 186 210 207 198 188 184 189 200 205 201 229 247 228 231 229 246 255 252 253 248 247 248 235 235 232 212 215 246 254 232 231 233 229
193 188 196 195 192 205 202 188 187 182 192 219 192 201 194 184 177 205 217 222 199 222 243 228 228 205 255 262 270 260 241 240 223 229 231 238 219 229 231 234 222 227 229
187 188 196 195 200 185 155 155 135 169 200 212 214 211 208 194 180 189 217 220 204 207 227 223 222 228 230 236 267 282 275 239 237 229 221 228 227 217 214 222 218 220 220
181 186 192 193 189 164 156 186 220 226 212 232 226 218 207 213 186 192 204 202 203 209 212 209 194 223 266 221 25 307 290 253 226 223 222 212 226 213 201 210 214 204 215
175 185 188 196 180 185 180 189 187 191 219 217 222 218 215 205 195 197 208 208 195 212 215 215 183 178 218 190 171 101 317 323 288 235 199 213 212 193 209 215 217 210 206
204 182 188 187 178 187 172 147 51 300 349 180 203 205 214 209 205 203 198 195 203 200 212 194 192 180 214 246 191 164 329 244 324 316 233 215 210 196 211 216 218 216 210
202 202 191 176 176 184 164 173 191 207 214 233 217 211 190 202 211 205 201 199 205 192 212 206 198 179 162 214 149 210 218 174 238 327 320 257 221 219 216 219 221 217 212
108 203 204 190 189 167 188 188 200 206 234 248 247 220 214 195 205 213 215 217 215 199 208 203 195 195 200 176 173 179 201 228 176 203 283 314 313 235 233 218 213 212 206
97 180 166 161 37 23 325 221 206 217 216 218 229 237 238 227 199 201 202 210 211 210 215 211 210 211 205 215 187 189 187 194 181 203 245 277 254 283 249 222 210 219 209